ARIANE 2 DEB

基本信息
目录编号:
27033
目录名称:
ARIANE 2 DEB
国际标识:
1989-006N
轨道中心:
EARTH
物体状态:
在轨
发射日期:
1989-01-27 UTC
轨道信息
数据来源: 国际轨道数据
星历时间: 2026-07-14T11:17:31+0800
半长轴: 23911.887km
偏心率: 0.7103865
轨道倾角: 8.663°
近地点辐角: 218.317°
升交点赤经: 2.958°
平近点角: 66.497°
近地点: 547.068km
远地点: 34520.432km
周期: 613.311分钟
每日圈数: 2.347913
详细信息
发射场:
FRGUI
轨道高度:
LEO
数据来源:
AOE Integration Group
参考系:
TEME
时间系统:
UTC
历元类型:
SGP4
2D轨道图
3D轨道图
轨道高度分析图
轨道倾角分析图
轨道综合分析图
查看轨道综合分析图